Date String (YYYY-MM-DD hh:mm:ss) UTC,Instrument flags,absolute air pressure of the measurement (hPa),sample flow rate (lpm),inlet stack bypass flow (lpm),air temperature of the measurement (°C),ambient temperature measured by the external sensor (°C),aerosol sample conditioner tube jacket temperature (°C),OPC LED temperature (°C),internal box temperature (°C),relative humidity of the measurement (%),span deviation,mass concentration of particles derived from Lorenz-Mie calculation of OPC scattering (μg/m³),mass concentration of particles derived from Lorenz-Mie calculation of OPC scattering (μg/m³),mass concentration of particles derived from Lorenz-Mie calculation of OPC scattering (μg/m³)
DateTimeUTC,F1_M11,P_M11,Q1_M11,Q2_M11,T1_M11,T2_M11,T3_M11,T4_M11,T5_M11,U1_M11,ZSPAN_M11,X2_M11,X0_M11,X1_M11
2024-02-17 22:00:00,SystemResetWarning,0832.3,5.01,000.00,018.4,017.8,000.0,026.9,020.0,13.3,0000.0,0005.29,0008.70,0004.87
2024-02-17 22:01:00,SystemResetWarning,0832.3,5.01,000.00,018.4,017.8,000.0,027.0,020.0,13.9,0000.0,0005.29,0008.69,0004.88
2024-02-17 22:02:00,SystemResetWarning,0832.3,5.01,000.00,018.4,017.8,000.0,027.0,020.0,13.1,0000.0,0005.27,0008.36,0004.88
2024-02-17 22:03:00,SystemResetWarning,0832.2,4.99,000.00,018.4,017.8,000.0,027.0,020.0,12.6,0000.0,0005.28,0008.37,0004.89
2024-02-17 22:04:00,SystemResetWarning,0832.2,5.00,000.00,018.4,017.8,000.0,026.9,020.0,12.8,0000.0,0005.30,0008.31,0004.91
2024-02-17 22:05:00,SystemResetWarning,0832.2,4.99,000.00,018.4,017.8,000.0,026.9,020.0,13.1,0000.0,0005.30,0008.26,0004.93
2024-02-17 22:06:00,SystemResetWarning,0832.2,4.99,000.00,018.4,017.8,000.0,026.9,020.0,13.3,0000.0,0005.29,0008.37,0004.95
2024-02-17 22:07:00,SystemResetWarning,0832.2,5.01,000.00,018.4,017.8,000.0,026.9,020.0,13.3,0000.0,0005.32,0008.89,0004.99
2024-02-17 22:08:00,SystemResetWarning,0832.2,5.01,000.00,018.4,017.8,000.0,026.9,020.0,13.3,0000.0,0005.35,0008.87,0005.02
2024-02-17 22:09:00,SystemResetWarning,0832.2,5.00,000.00,018.4,017.7,000.0,026.9,020.0,12.8,0000.0,0005.32,0008.75,0005.03
2024-02-17 22:10:00,SystemResetWarning,0832.2,4.99,000.00,018.4,017.7,000.0,027.0,020.0,13.3,0000.0,0005.32,0008.67,0005.05
2024-02-17 22:11:00,SystemResetWarning,0832.2,4.99,000.00,018.4,017.7,000.0,027.0,020.0,13.5,0000.0,0005.28,0008.52,0005.04
2024-02-17 22:12:00,SystemResetWarning,0832.2,5.01,000.00,018.4,017.8,000.0,027.0,020.0,13.8,0000.0,0005.26,0008.40,0005.02
2024-02-17 22:13:00,SystemResetWarning,0832.2,5.02,000.00,018.4,017.8,000.0,027.0,020.0,13.8,0000.0,0005.26,0008.45,0005.00
2024-02-17 22:14:00,SystemResetWarning,0832.2,5.00,000.00,018.4,017.8,000.0,026.9,020.0,13.5,0001.1,0005.28,0008.36,0005.01
2024-02-17 22:15:00,SystemResetWarning,0832.2,5.00,000.00,018.4,017.8,000.0,026.9,020.0,13.3,0001.8,0005.29,0008.85,0005.04
2024-02-17 22:16:00,SystemResetWarning,0832.2,5.00,000.00,018.4,017.7,000.0,027.0,020.0,13.4,0002.3,0005.31,0009.10,0005.06
2024-02-17 22:17:00,SystemResetWarning,0832.2,5.00,000.00,018.4,017.7,000.0,027.0,020.0,13.4,0002.5,0005.32,0009.12,0005.06
2024-02-17 22:18:00,SystemResetWarning,0832.2,5.00,000.00,018.4,017.7,000.0,027.0,020.0,13.2,0002.6,0005.31,0008.40,0005.05
2024-02-17 22:19:00,SystemResetWarning,0832.2,5.00,000.00,018.4,017.7,000.0,027.0,020.0,12.9,0002.2,0005.30,0008.82,0005.04
2024-02-17 22:20:00,SystemResetWarning,0832.1,5.00,000.00,018.4,017.7,000.0,027.0,020.0,12.3,0002.4,0005.32,0009.08,0005.07
2024-02-17 22:21:00,SystemResetWarning,0832.1,5.00,000.00,018.4,017.7,000.0,027.0,020.0,12.5,0002.8,0005.36,0009.10,0005.09
2024-02-17 22:22:00,SystemResetWarning,0832.1,5.00,000.00,018.4,017.7,000.0,027.0,020.0,12.9,0002.9,0005.39,0009.04,0005.12
2024-02-17 22:23:00,SystemResetWarning,0832.1,5.00,000.00,018.4,017.7,000.0,027.0,020.0,12.6,0002.8,0005.42,0009.05,0005.15
2024-02-17 22:24:00,SystemResetWarning,0832.1,5.00,000.00,018.4,017.7,000.0,027.0,020.0,13.0,0003.2,0005.44,0009.13,0005.19
2024-02-17 22:25:00,SystemResetWarning,0832.1,5.00,000.00,018.4,017.7,000.0,027.0,020.0,12.8,0003.4,0005.45,0009.15,0005.20
2024-02-17 22:26:00,SystemResetWarning,0832.1,5.00,000.00,018.4,017.7,000.0,027.0,020.0,12.5,0003.3,0005.41,0008.74,0005.17
2024-02-17 22:27:00,SystemResetWarning,0832.1,5.00,000.00,018.4,017.7,000.0,026.9,020.0,12.4,0002.7,0005.37,0008.35,0005.13
2024-02-17 22:28:00,SystemResetWarning,0832.1,5.00,000.00,018.4,017.7,000.0,027.0,020.0,12.9,0002.4,0005.28,0008.29,0005.04
2024-02-17 22:29:00,SystemResetWarning,0832.1,5.00,000.00,018.4,017.7,000.0,027.0,020.0,12.8,0002.0,0005.19,0008.19,0004.96
2024-02-17 22:30:00,SystemResetWarning,0832.0,5.00,000.00,018.4,017.7,000.0,027.0,020.0,12.8,0002.1,0005.12,0007.84,0004.88
2024-02-17 22:31:00,SystemResetWarning,0832.1,5.00,000.00,018.4,017.7,000.0,027.0,020.0,12.5,0002.1,0005.03,0007.37,0004.78
2024-02-17 22:32:00,SystemResetWarning,0832.1,5.01,000.00,018.4,017.7,000.0,026.9,020.0,12.1,0001.7,0004.92,0007.22,0004.68
2024-02-17 22:33:00,SystemResetWarning,0832.1,5.01,000.00,018.4,017.7,000.0,027.0,020.0,12.1,0000.5,0004.79,0006.89,0004.59
2024-02-17 22:34:00,SystemResetWarning,0832.0,4.99,000.00,018.4,017.7,000.0,026.9,020.0,12.2,0000.0,0004.74,0006.71,0004.54
2024-02-17 22:35:00,SystemResetWarning,0832.0,5.00,000.00,018.4,017.7,000.0,027.0,020.0,12.5,0000.0,0004.72,0006.64,0004.49
2024-02-17 22:36:00,SystemResetWarning,0832.0,5.00,000.00,018.4,017.7,000.0,027.0,020.0,12.4,0000.0,0004.68,0006.66,0004.43
2024-02-17 22:37:00,SystemResetWarning,0832.0,5.00,000.00,018.4,017.7,000.0,026.9,020.0,12.1,0000.0,0004.64,0007.96,0004.39
2024-02-17 22:38:00,SystemResetWarning,0832.0,5.00,000.00,018.4,017.7,000.0,027.0,020.0,12.6,0000.0,0004.63,0008.06,0004.38
2024-02-17 22:39:00,SystemResetWarning,0832.0,5.01,000.00,018.4,017.7,000.0,027.0,020.0,12.4,0000.0,0004.66,0008.10,0004.40
2024-02-17 22:40:00,SystemResetWarning,0832.0,5.00,000.00,018.4,017.7,000.0,027.0,020.0,12.5,0000.0,0004.68,0008.45,0004.41
2024-02-17 22:41:00,SystemResetWarning,0832.0,5.00,000.00,018.4,017.7,000.0,027.0,020.0,12.1,0000.0,0004.67,0008.71,0004.40
2024-02-17 22:42:00,SystemResetWarning,0832.0,5.00,000.00,018.3,017.6,000.0,027.0,020.0,12.6,0000.0,0004.67,0008.84,0004.38
2024-02-17 22:43:00,SystemResetWarning,0832.0,5.00,000.00,018.3,017.6,000.0,027.0,020.0,12.5,0000.0,0004.66,0008.85,0004.37
2024-02-17 22:44:00,SystemResetWarning,0832.0,5.00,000.00,018.4,017.6,000.0,027.0,020.0,12.1,0000.0,0004.63,0008.84,0004.35
2024-02-17 22:45:00,SystemResetWarning,0832.0,5.00,000.00,018.4,017.6,000.0,027.0,020.0,12.4,0000.0,0004.57,0008.76,0004.30
2024-02-17 22:46:00,SystemResetWarning,0832.0,4.99,000.00,018.3,017.6,000.0,027.0,020.0,12.2,0000.0,0004.50,0008.65,0004.26
2024-02-17 22:47:00,SystemResetWarning,0832.0,4.99,000.00,018.4,017.6,000.0,027.0,020.0,12.4,0000.0,0004.46,0008.57,0004.23
2024-02-17 22:48:00,SystemResetWarning,0831.9,5.01,000.00,018.4,017.6,000.0,027.0,020.0,12.7,0000.0,0004.43,0007.72,0004.20
2024-02-17 22:49:00,SystemResetWarning,0831.9,5.01,000.00,018.4,017.6,000.0,027.0,020.0,12.4,0000.0,0004.39,0007.54,0004.17
2024-02-17 22:50:00,SystemResetWarning,0831.9,5.00,000.00,018.4,017.6,000.0,027.0,020.0,12.9,0000.0,0004.36,0007.51,0004.14
2024-02-17 22:51:00,SystemResetWarning,0831.8,4.99,000.00,018.4,017.6,000.0,027.0,020.0,12.9,0000.0,0004.32,0007.12,0004.12
2024-02-17 22:52:00,SystemResetWarning,0831.9,4.99,000.00,018.3,017.6,000.0,027.0,020.0,12.5,0000.0,0004.32,0007.04,0004.12
2024-02-17 22:53:00,SystemResetWarning,0831.9,5.00,000.00,018.3,017.6,000.0,027.0,020.0,12.3,0000.0,0004.32,0007.69,0004.11
2024-02-17 22:54:00,SystemResetWarning,0831.8,5.00,000.00,018.3,017.6,000.0,027.0,020.0,12.5,0000.0,0004.32,0007.64,0004.10
2024-02-17 22:55:00,SystemResetWarning,0831.8,5.00,000.00,018.3,017.6,000.0,027.0,020.0,12.4,0000.0,0004.32,0007.64,0004.10
2024-02-17 22:56:00,SystemResetWarning,0831.9,5.00,000.00,018.3,017.6,000.0,027.0,020.0,12.6,0000.0,0004.35,0007.77,0004.11
2024-02-17 22:57:00,SystemResetWarning,0831.8,5.00,000.00,018.3,017.6,000.0,027.0,020.0,12.4,0000.0,0004.37,0007.92,0004.12
2024-02-17 22:58:00,SystemResetWarning,0831.8,5.01,000.00,018.3,017.6,000.0,027.0,020.0,12.3,0000.0,0004.36,0008.13,0004.12
2024-02-17 22:59:00,SystemResetWarning,0831.8,5.01,000.00,018.3,017.6,000.0,027.0,020.0,12.2,0000.0,0004.35,0008.30,0004.12
